Augusta, GA

5:47 AM EST on February 27, 2017 (GMT -0500)
Augusta Regional At Bush

Weather History for KAGS - December, 2013

Change the Weather History Date:

Tuesday, December 10, 2013

  Actual Average Record
Temperature  
Mean Temperature 52 °F 48 °F  
Max Temperature 68 °F 61 °F 82 °F (2007)
Min Temperature 35 °F 35 °F 16 °F (1981)
Degree Days  
Heating Degree Days 13 17  
Month to date heating degree days 98 158  
Since 1 July heating degree days 557 580  
Cooling Degree Days 0 0  
Month to date cooling degree days 4 0  
Year to date cooling degree days 1869 2086  
Growing Degree Days 2 (Base 50)    
Moisture  
Dew Point 50 °F    
Average Humidity 74    
Maximum Humidity 100    
Minimum Humidity 47    
Precipitation  
Precipitation 0.04 in 0.10 in 2.09 in (2008)
Month to date precipitation 2.08 1.03  
Year to date precipitation 50.70 41.21  
Sea Level Pressure  
Sea Level Pressure 30.07 in    
Wind  
Wind Speed 8 mph (WNW)    
Max Wind Speed 26 mph    
Max Gust Speed 37 mph    
Visibility 8 miles    
Events Fog , Rain    
T = Trace of Precipitation, MM = Missing Value Source: NWS Daily Summary

Daily Weather History Graph

Daily Weather History Graph

Search for Another Location

Airport or City:

Trip Planner

Search our weather history database for the weather conditions in past years. The results will help you decide how hot, cold, wet, or windy it might be!

Date:

Astronomy

Dec. 10, 2013 Rise Set
Actual Time 7:21 AM EST 5:20 PM EST
Civil Twilight 6:53 AM EST 5:47 PM EST
Nautical Twilight 6:22 AM EST 6:18 PM EST
Astronomical Twilight 5:52 AM EST 6:49 PM EST
Moon 1:05 PM EST (12/10) 12:54 AM EST (12/10)
Length of Visible Light 10h 54m
Length of Day
9h 59m
First Quarter, 61% of the Moon is Illuminated
Dec 10
First Quarter
Dec 17
Full
Dec 25
Last Quarter
Jan 1
New
Jan 7
First Quarter

Hourly Weather History & Observations

Time (EST) Temp. Windchill Dew Point Humidity Pressure Visibility Wind Dir Wind Speed Gust Speed Precip Events Conditions
12:02 AM 53.6 °F - 53.6 °F 100% 30.04 in 8.0 mi Calm Calm - N/A   Overcast
12:53 AM 54.0 °F - 53.1 °F 97% 30.02 in 7.0 mi Calm Calm - N/A   Overcast
1:53 AM 54.0 °F - 53.1 °F 97% 30.00 in 6.0 mi Calm Calm - N/A   Overcast
2:53 AM 54.0 °F - 54.0 °F 100% 29.99 in 3.0 mi NNE 3.5 mph - 0.00 in Rain Light Rain
3:03 AM 53.6 °F - 53.6 °F 100% 30.00 in 2.0 mi Calm Calm - 0.00 in   Overcast
3:10 AM 53.6 °F - 53.6 °F 100% 30.00 in 1.2 mi North 4.6 mph - 0.00 in   Overcast
3:21 AM 53.6 °F - 53.6 °F 100% 29.99 in 0.5 mi Calm Calm - 0.00 in Fog Fog
3:53 AM 54.0 °F - 54.0 °F 100% 29.99 in 0.5 mi Calm Calm - 0.00 in Fog Fog
4:13 AM 53.6 °F - 53.6 °F 100% 29.98 in 1.5 mi Calm Calm - 0.00 in Rain Light Rain
4:21 AM 53.6 °F - 53.6 °F 100% 29.98 in 2.0 mi Calm Calm - 0.00 in Rain Light Rain
4:39 AM 53.6 °F - 53.6 °F 100% 29.97 in 5.0 mi Calm Calm - 0.01 in Rain Light Rain
4:53 AM 54.0 °F - 54.0 °F 100% 29.97 in 7.0 mi Calm Calm - 0.01 in   Overcast
5:02 AM 53.6 °F - 53.6 °F 100% 29.97 in 9.0 mi Calm Calm - 0.00 in Rain Light Rain
5:32 AM 55.4 °F - 53.6 °F 94% 29.97 in 8.0 mi Calm Calm - 0.00 in   Overcast
5:51 AM 55.4 °F - 55.4 °F 100% 29.96 in 9.0 mi Calm Calm - 0.00 in   Overcast
5:53 AM 55.9 °F - 55.0 °F 97% 29.96 in 10.0 mi Calm Calm - 0.00 in   Overcast
6:19 AM 57.2 °F - 55.4 °F 94% 29.97 in 10.0 mi Calm Calm - N/A   Overcast
6:53 AM 66.9 °F - 64.9 °F 93% 29.96 in 10.0 mi SW 6.9 mph 20.7 mph N/A   Overcast
7:53 AM 66.9 °F - 64.9 °F 93% 29.95 in 10.0 mi SSW 6.9 mph - N/A   Overcast
8:53 AM 68.0 °F - 64.9 °F 90% 29.98 in 9.0 mi SW 9.2 mph - N/A   Overcast
9:09 AM 62.6 °F - 60.8 °F 94% 30.01 in 10.0 mi WNW 15.0 mph 26.5 mph 0.03 in Rain Light Rain
9:18 AM 62.6 °F - 59.0 °F 88% 30.01 in 10.0 mi WNW 13.8 mph - 0.03 in   Overcast
9:53 AM 62.1 °F - 55.9 °F 80% 30.04 in 10.0 mi WNW 19.6 mph 25.3 mph 0.03 in   Overcast
10:53 AM 59.0 °F - 55.9 °F 90% 30.06 in 10.0 mi West 8.1 mph - 0.00 in Rain Light Rain
11:53 AM 60.1 °F - 54.0 °F 80% 30.08 in 10.0 mi West 15.0 mph 20.7 mph 0.00 in   Mostly Cloudy
12:53 PM 60.1 °F - 51.1 °F 72% 30.09 in 10.0 mi NW 21.9 mph 27.6 mph N/A   Mostly Cloudy
1:53 PM 60.1 °F - 46.0 °F 60% 30.10 in 10.0 mi WNW 19.6 mph 25.3 mph N/A   Scattered Clouds
2:53 PM 57.9 °F - 42.1 °F 56% 30.11 in 10.0 mi WNW 18.4 mph 26.5 mph N/A   Partly Cloudy
3:53 PM 59.0 °F - 39.9 °F 49% 30.14 in 10.0 mi NW 15.0 mph 25.3 mph N/A   Clear
4:53 PM 55.9 °F - 37.0 °F 49% 30.17 in 10.0 mi NW 15.0 mph - N/A   Clear
5:53 PM 52.0 °F - 34.0 °F 50% 30.20 in 10.0 mi NW 9.2 mph - N/A   Clear
6:53 PM 50.0 °F - 32.0 °F 50% 30.23 in 10.0 mi WNW 8.1 mph - N/A   Clear
7:53 PM 46.0 °F 43.9 °F 32.0 °F 58% 30.26 in 10.0 mi North 4.6 mph - N/A   Clear
8:53 PM 42.1 °F 40.2 °F 32.0 °F 67% 30.29 in 10.0 mi NNW 3.5 mph - N/A   Clear
9:53 PM 39.0 °F 35.7 °F 35.1 °F 86% 30.32 in 10.0 mi NW 4.6 mph - N/A   Clear
10:53 PM 36.0 °F 32.1 °F 32.0 °F 86% 30.35 in 10.0 mi NNE 4.6 mph - N/A   Clear
11:53 PM 36.0 °F - 32.0 °F 86% 30.35 in 10.0 mi Calm Calm - N/A   Clear